SCP
0 0 0 0 0 0 0 0 0 0 0 0 0 0 0 0 0 0 0 0 0 0 0 0 0 0 0 0 0 0 0 0 0 0 0 0 0 0 0 0 0 0 0 0 0 0 0 0 0
0 0 0 0 0 0 0 0 0 0 0 0 0 0 0 0 0 0 0 0 0 0 0 0 0 0 0 0 0 0 0 0 0 0 0 0 0 0 0 0 0 0 0 0 0 0 0 0 0
0 0 0 0 0 0 0 0 0 0 0 0 0 0 0 0 0 0 0 0 0 0 0 0 0 0 0 0 0 0 0 0 0 0 0 0 0 0 0 0 0 0 0 0 0 0 0 0 0
0 0 0 0 0 0 0 0 0 0 0 0 0 0 0 0 0 0 0 0 0 0 0 0 0 0 0 0 0 0 0 0 0 0 0 0 0 0 0 0 0 0 0 0 0 0 0 0 0
0 0 0 0 0 0 0 0 0 0 0 0 0 0 0 0 0 0 0 0 0 0 0 0 0 0 0 0 0 0 0 0 0 0 0 0 0 0 0 0 0 0 0 0 0 0 0 0 0
0 0 0 0 0 0 0 0 0 0 0 0 0 0 0 0 0 0 0 0 0 0 0 0 0 0 0 0 0 0 0 0 0 0 0 0 0 0 0 0 0 0 0 0 0 0 0 0 0
0 0 0 0 0 0 0 0 0 0 0 0 0 0 0 0 0 0 0 0 0 0 0 0 0 0 0 0 0 0 0 0 0 0 0 0 0 0 0 0 0 0 0 0 0 0 0 0 0
0 0 0 0 0 0 0 0 0 0 0 0 0 0 0 0 0 0 0 0 0 0 0 0 0 0 0 0 0 0 0 0 0 0 0 0 0 0 0 0 0 0 0 0 0 0 0 0 0
0 0 0 0 0 0 0 0 0 0 0 0 0 0 0 0 0 0 0 0 0 0 0 0 0 0 0 0 0 0 0 0 0 0 0 0 0 0 0 0 0 0 0 0 0 0 0 0 0
0 0 0 0 0 0 0 0 0 0 0 0 0 0 0 0 0 0 0 0 0 0 0 0 0 0 0 0 0 0 0 0 0 0 0 0 0 0 0 0 0 0 0 0 0 0 0 0 0
0 0 0 0 0 0 0 0 0 0 0 0 0 0 0 0 0 0 0 0 0 0 0 0 0 0 0 0 0 0 0 0 0 0 0 0 0 0 0 0 0 0 0 0 0 0 0 0 0
0 0 0 0 0 0 0 0 0 0 0 0 0 0 0 0 0 0 0 0 0 0 0 0 0 0 0 0 0 0 0 0 0 0 0 0 0 0 0 0 0 0 0 0 0 0 0 0 0
0 0 0 0 0 0 0 0 0 0 0 0 0 0 0 0 0 0 0 0 0 0 0 0 0 0 0 0 0 0 0 0 0 0 0 0 0 0 0 0 0 0 0 0 0 0 0 0 0
0 0 0 0 0 0 0 0 0 0 0 0 0 0 0 0 0 0 0 0 0 0 0 0 0 0 0 0 0 0 0 0 0 0 0 0 0 0 0 0 0 0 0 0 0 0 0 0 0
0 0 0 0 0 0 0 0 0 0 0 0 0 0 0 0 0 0 0 0 0 0 0 0 0 0 0 0 0 0 0 0 0 0 0 0 0 0 0 0 0 0 0 0 0 0 0 0 0
0 0 0 0 0 0 0 0 0 0 0 0 0 0 0 0 0 0 0 0 0 0 0 0 0 0 0 0 0 0 0 0 0 0 0 0 0 0 0 0 0 0 0 0 0 0 0 0 0
0 0 0 0 0 0 0 0 0 0 0 0 0 0 0 0 0 0 0 0 0 0 0 0 0 0 0 0 0 0 0 0 0 0 0 0 0 0 0 0 0 0 0 0 0 0 0 0 0
0 0 0 0 0 0 0 0 0 0 0 0 0 0 0 0 0 0 0 0 0 0 0 0 0 0 0 0 0 0 0 0 0 0 0 0 0 0 0 0 0 0 0 0 0 0 0 0 0
0 0 0 0 0 0 0 0 0 0 0 0 0 0 0 0 0 0 0 0 0 0 0 0 0 0 0 0 0 0 0 0 0 0 0 0 0 0 0 0 0 0 0 0 0 0 0 0 0
0 0 0 0 0 0 0 0 0 0 0 0 0 0 0 0 0 0 0 0 0 0 0 0 0 0 0 0 0 0 0 0 0 0 0 0 0 0 0 0 0 0 0 0 0 0 0 0 0
0 0 0 0 0 0 0 0 0 0 0 0 0 0 0 0 0 0 0 0 0 0 0 0 0 0 0 0 0 0 0 0 0 0 0 0 0 0 0 0 0 0 0 0 0 0 0 0 0
0 0 0 0 0 0 0 0 0 0 0 0 0 0 0 0 0 0 0 0 0 0 0 0 0 0 0 0 0 0 0 0 0 0 0 0 0 0 0 0 0 0 0 0 0 0 0 0 0
0 0 0 0 0 0 0 0 0 0 0 0 0 0 0 0 0 0 0 0 0 0 0 0 0 0 0 0 0 0 0 0 0 0 0 0 0 0 0 0 0 0 0 0 0 0 0 0 0
0 0 0 0 0 0 0 0 0 0 0 0 0 0 0 0 0 0 0 0 0 0 0 0 0 0 0 0 0 0 0 0 0 0 0 0 0 0 0 0 0 0 0 0 0 0 0 0 0
0 0 0 0 0 0 0 0 0 0 0 0 0 0 0 0 0 0 0 0 0 0 0 0 0 0 0 0 0 0 0 0 0 0 0 0 0 0 0 0 0 0 0 0 0 0 0 0 0
0 0 0 0 0 0 0 0 0 0 0 0 0 0 0 0 0 0 0 0 0 0 0 0 0 0 0 0 0 0 0 0 0 0 0 0 0 0 0 0 0 0 0 0 0 0 0 0 0
0 0 0 0 0 0 0 0 0 0 0 0 0 0 0 0 0 0 0 0 0 0 0 0 0 0 0 0 0 0 0 0 0 0 0 0 0 0 0 0 0 0 0 0 0 0 0 0 0
0 0 0 0 0 0 0 0 0 0 0 0 0 0 0 0 0 0 0 0 0 0 0 0 0 0 0 0 0 0 0 0 0 0 0 0 0 0 0 0 0 0 0 0 0 0 0 0 0
0 0 0 0 0 0 0 0 0 0 0 0 0 0 0 0 0 0 0 0 0 0 0 0 0 0 0 0 0 0 0 0 0 0 0 0 0 0 0 0 0 0 0 0 0 0 0 0 0
0 0 0 0 0 0 0 0 0 0 0 0 0 0 0 0 0 0 0 0 0 0 0 0 0 0 0 0 0 0 0 0 0 0 0 0 0 0 0 0 0 0 0 0 0 0 0 0 0
Wind_Speed
2 2 3 4 5 3 4 7 5 2 2 2 4 9 9 6 4 4 3 11 13 14 12 16 19 19 18 18 17 16 16 15 15 14 14 14 14 14 14 13 14 14 14 14 14 14 14 13 13
1 2 4 5 5 2 6 6 6 7 5 4 5 7 7 3 3 8 7 11 17 15 11 13 19 19 19 18 18 17 16 15 15 14 14 14 14 14 13 13 14 14 13 14 13 13 13 13 13
1 2 4 4 4 6 6 5 7 5 5 3 4 5 7 8 7 9 9 16 16 13 10 14 20 20 19 19 18 17 17 16 15 14 14 14 13 13 13 13 13 13 13 13 12 12 12 12 12
3 4 4 2 6 8 6 4 2 3 2 2 6 6 3 4 9 9 15 18 16 12 10 14 20 20 19 19 19 18 17 16 15 14 14 14 13 13 13 13 12 12 12 12 12 11 11 11 11
4 4 2 2 6 7 6 6 5 4 5 3 6 6 2 2 4 14 19 19 17 13 10 13 20 20 20 19 19 18 17 16 16 15 14 14 13 13 12 12 12 12 11 11 11 10 10 10 9
3 4 3 5 7 6 6 6 4 5 4 4 7 7 2 2 11 16 17 17 16 15 12 12 20 20 20 20 19 18 17 17 16 15 15 14 14 13 12 12 11 11 10 10 10 9 9 8 8
4 4 4 5 5 6 7 5 6 6 5 6 9 8 2 3 8 12 13 14 14 14 12 10 11 14 18 19 19 19 18 17 16 16 15 14 14 13 12 12 11 10 9 9 9 8 8 7 7
5 4 3 4 5 7 5 3 5 8 6 4 7 12 8 9 8 9 9 10 12 11 11 9 9 9 10 12 17 18 18 17 17 16 14 14 13 12 12 10 10 9 9 8 7 6 6 5 4
4 3 5 5 6 6 3 2 2 4 6 4 3 8 8 15 13 13 9 8 11 12 10 10 10 9 9 9 13 14 15 16 15 13 14 11 5 5 7 8 10 9 8 7 6 5 4 2 2
5 5 8 5 3 3 3 2 3 3 4 3 3 3 9 16 18 18 17 17 17 17 15 12 12 11 10 9 8 7 7 8 7 6 8 5 5 4 6 9 9 9 7 6 5 4 2 1 1
7 8 6 6 5 4 4 4 1 5 4 6 7 9 14 15 17 18 19 20 20 18 17 15 13 12 11 7 7 5 5 5 6 8 7 6 5 4 3 3 4 3 3 1 1 1 1 0 1
6 7 7 6 5 4 4 3 1 3 5 6 10 16 17 18 19 19 19 17 14 16 17 16 15 13 11 9 7 7 6 6 6 7 8 6 4 4 4 3 3 2 1 2 1 1 1 1 2
8 7 7 8 7 6 5 5 4 5 4 3 8 13 17 19 19 17 16 13 13 17 17 17 16 15 13 10 8 9 8 8 7 7 7 7 6 5 5 3 3 3 2 2 2 2 2 1 1
8 9 10 9 9 6 6 7 4 8 4 3 9 14 15 17 18 13 11 12 15 17 18 17 18 17 15 12 10 9 8 8 8 7 8 9 6 6 5 4 4 3 3 3 3 3 2 1 0
6 6 8 8 8 6 5 9 9 10 4 4 7 12 14 15 14 15 17 17 18 19 19 19 19 17 17 15 12 10 9 9 8 8 9 9 8 7 6 5 4 4 4 4 2 2 1 1 0
4 6 9 8 7 7 7 12 11 9 7 9 9 9 11 14 15 16 17 16 16 16 17 19 18 18 18 15 13 10 9 9 8 8 8 10 9 9 7 5 5 5 4 3 3 2 1 1 1
4 6 8 7 7 7 9 10 10 8 8 10 10 10 11 13 14 15 16 17 17 18 19 19 19 20 19 16 13 11 10 10 9 8 8 9 10 9 7 6 5 5 4 3 3 2 2 1 0
8 7 6 9 5 8 10 11 10 7 9 11 10 10 10 12 16 15 16 16 16 17 18 20 19 19 17 13 10 8 9 9 9 9 9 10 9 10 8 6 6 6 4 3 3 2 2 1 1
8 7 8 8 6 6 10 14 15 11 8 11 11 11 11 13 13 11 13 14 13 15 17 19 19 18 16 14 13 13 12 10 9 9 11 12 10 10 9 6 6 6 5 5 5 3 3 1 1
9 9 9 6 5 6 8 14 13 11 11 12 13 13 13 13 11 10 10 11 14 17 19 20 21 20 20 16 14 11 10 8 8 8 10 12 12 11 9 8 7 6 5 5 5 4 3 1 2
14 14 12 7 3 3 4 9 9 9 8 10 10 11 11 14 14 12 10 12 13 16 19 19 21 20 20 16 10 7 5 4 6 9 10 10 12 12 10 10 8 7 6 6 6 5 6 3 1
20 14 10 9 5 6 4 8 10 8 9 10 12 11 13 13 13 12 11 11 14 17 17 18 20 19 19 17 15 17 13 11 10 10 8 9 11 12 11 10 9 8 6 6 6 5 4 5 3
9 9 10 10 9 7 6 7 9 6 10 12 13 14 14 13 13 13 13 13 14 14 15 16 17 18 18 19 19 19 12 10 6 7 10 10 10 11 11 11 9 9 7 7 7 6 5 4 4
7 5 4 4 4 12 15 10 10 9 12 10 12 13 13 12 12 12 11 9 10 10 11 13 16 17 18 19 19 19 17 13 12 11 12 10 7 8 10 10 9 9 7 8 7 7 7 5 5
10 9 6 7 8 12 9 10 12 11 11 13 14 13 13 11 10 10 9 9 10 11 12 13 16 16 18 19 19 19 18 17 17 14 13 11 8 7 11 9 9 8 8 8 7 7 7 7 6
17 16 12 10 9 5 7 13 11 11 11 11 12 11 10 9 9 9 10 10 10 12 13 13 16 15 17 19 18 17 16 13 12 13 11 12 10 10 11 11 10 9 9 9 8 6 6 6 6
15 16 10 5 3 3 7 7 9 6 8 9 10 9 10 10 9 9 8 8 9 11 13 14 15 14 16 17 16 15 16 14 13 12 11 10 8 8 11 11 10 10 9 9 9 6 6 6 6
14 12 8 9 8 8 6 7 8 7 11 11 10 11 10 9 7 7 7 8 8 9 9 10 12 14 13 15 15 13 15 14 13 12 13 12 11 10 12 11 11 10 10 9 8 6 6 7 6
11 13 9 8 7 8 6 9 10 11 11 12 12 11 10 9 8 8 7 6 6 6 7 8 9 10 11 13 12 12 13 13 13 13 13 13 12 12 13 12 12 11 10 10 9 8 8 8 6
8 10 11 12 9 7 5 10 6 9 10 10 11 9 8 8 7 6 6 5 6 7 7 8 9 10 11 11 11 12 11 12 13 13 13 12 13 13 13 12 12 11 11 10 11 10 9 9 9
Wind_Direction
289 59 78 61 62 65 235 240 226 236 186 198 127 111 116 118 145 158 138 141 141 150 161 159 158 154 148 143 138 134 130 128 124 118 114 111 110 108 105 102 99 95 92 90 88 86 86 86 85
84 88 64 66 102 186 251 238 223 221 195 162 114 103 98 95 118 126 133 153 147 152 156 157 157 153 148 144 141 137 134 130 127 123 119 116 113 112 110 105 101 99 95 93 91 90 90 89 88
76 100 94 94 158 197 233 228 215 224 208 160 98 87 131 150 154 159 161 150 145 150 152 160 157 154 150 148 145 141 138 135 132 129 125 122 120 116 114 110 107 103 100 97 95 93 92 91 90
76 60 66 111 228 229 223 234 196 172 205 123 112 93 123 165 169 165 145 146 145 149 152 162 159 157 154 151 148 145 143 141 138 135 131 127 124 120 118 115 112 110 106 103 100 97 95 94 91
70 88 109 245 243 249 239 240 218 193 176 148 115 118 130 345 142 140 145 148 150 151 155 164 162 160 157 155 152 150 148 146 143 140 136 133 129 126 123 120 119 115 111 108 105 101 98 96 93
74 86 141 232 249 262 257 230 194 191 182 150 121 124 141 99 139 150 151 151 153 155 158 164 167 163 161 159 157 155 153 150 148 144 141 139 136 133 130 127 125 121 117 112 107 103 100 97 94
132 136 202 222 247 265 254 217 184 179 178 180 141 126 142 162 161 151 149 147 151 156 159 163 166 165 165 163 161 159 157 155 153 150 146 144 143 142 138 134 130 125 120 115 110 105 100 96 91
156 142 228 228 227 251 249 211 194 168 187 159 131 143 181 191 155 134 133 141 150 158 162 163 161 163 164 164 164 162 161 160 157 154 150 150 150 147 144 140 139 135 131 127 120 113 105 95 86
132 135 221 221 211 244 270 221 218 168 127 100 132 174 184 147 139 135 136 145 159 167 170 167 163 163 160 161 167 164 164 163 158 155 153 148 135 132 139 149 151 146 143 139 133 129 119 94 40
149 195 220 222 212 253 307 278 216 132 113 94 67 65 125 143 153 158 165 169 173 177 178 173 169 165 162 167 164 163 161 159 152 151 149 140 139 148 154 168 164 159 157 155 156 158 132 67 353
180 206 222 251 258 281 301 304 276 143 168 181 173 158 149 159 166 173 178 180 181 177 177 177 174 170 168 167 162 162 156 154 154 156 152 148 147 153 155 159 166 163 161 154 170 87 59 247 253
206 229 214 234 249 262 262 272 287 190 199 186 178 162 162 171 179 183 184 186 178 177 182 178 176 174 173 168 168 165 163 164 166 167 161 155 156 161 165 170 173 173 173 183 204 223 249 246 248
231 246 239 239 245 236 243 247 238 246 242 171 153 160 174 182 189 193 190 181 176 182 184 181 179 179 176 172 173 173 173 173 172 171 170 165 165 171 174 178 179 185 183 185 197 212 223 242 255
221 233 251 254 250 238 231 246 225 243 235 160 161 178 191 193 195 192 188 185 187 188 187 183 183 182 178 179 178 177 177 175 174 177 177 173 172 173 174 178 180 187 188 190 190 191 197 213 202
223 238 260 249 236 234 220 256 235 235 235 227 199 196 201 207 203 199 197 195 194 192 187 186 186 183 182 182 181 179 179 177 180 181 179 178 177 176 175 175 181 188 183 177 169 173 150 138 94
207 222 243 250 218 216 185 245 248 238 224 239 231 215 211 215 212 211 207 203 199 193 189 188 186 185 185 183 182 180 181 180 182 181 182 182 181 177 173 174 183 180 170 163 160 151 126 105 79
215 210 221 248 219 196 191 234 247 232 212 233 239 231 222 222 221 219 214 209 202 196 191 188 187 186 187 184 181 180 179 183 183 182 184 186 183 178 173 176 180 171 163 165 164 139 141 148 171
201 199 206 217 226 193 211 235 247 238 213 227 237 238 232 229 228 219 215 211 206 199 193 190 188 186 184 180 176 176 181 185 184 185 187 184 184 179 173 174 177 166 159 164 159 147 136 145 167
189 195 215 224 223 203 225 238 245 238 227 233 238 238 237 236 236 225 215 209 201 197 193 190 188 185 180 182 182 184 188 187 187 187 187 186 183 180 176 174 173 169 171 175 167 148 143 139 118
210 219 227 251 231 216 237 247 247 238 224 224 228 231 233 238 241 230 218 205 197 195 193 191 189 186 185 188 188 188 180 181 183 182 187 187 184 181 180 176 176 173 168 169 168 153 143 142 129
215 217 220 226 271 262 257 272 256 253 236 236 233 230 230 228 230 227 216 208 199 196 194 192 191 188 188 183 173 157 148 151 174 188 190 189 185 183 180 180 175 175 172 176 177 166 156 159 158
224 214 210 218 227 251 214 265 261 245 249 242 240 237 236 234 229 224 216 209 203 200 195 193 190 188 187 179 177 177 183 187 189 185 184 183 185 183 181 179 177 177 176 175 178 171 160 150 159
212 191 205 215 220 245 236 246 264 235 241 243 238 236 236 234 227 224 218 211 205 198 193 192 188 188 185 184 184 185 189 187 169 168 176 183 185 184 183 181 179 178 178 177 174 167 164 158 158
184 155 198 221 211 240 229 224 261 220 219 231 235 236 236 234 227 224 221 211 204 195 191 188 186 188 186 186 186 188 187 176 169 175 182 185 184 186 186 182 181 180 177 178 177 172 169 169 161
180 166 189 203 215 236 207 214 246 223 216 218 228 233 232 228 222 219 212 204 198 191 188 187 186 188 187 187 189 191 189 183 183 182 185 183 183 188 190 183 182 180 180 177 170 169 174 172 168
193 185 191 196 203 232 188 221 244 228 223 223 227 227 227 225 220 215 211 204 199 193 188 186 188 188 187 189 191 190 187 187 189 186 185 188 190 189 184 183 182 179 176 173 169 168 175 173 173
186 200 189 171 187 205 227 252 283 232 230 231 229 226 225 223 218 214 211 204 198 192 190 188 188 187 188 189 188 188 187 188 187 184 182 187 184 180 179 181 179 178 176 172 168 174 176 171 176
187 173 166 185 191 219 242 234 231 213 216 222 223 223 225 222 217 214 208 202 197 192 189 187 188 188 186 187 188 189 189 189 185 182 187 187 183 178 176 180 180 178 176 174 171 171 172 172 177
177 181 176 175 190 187 224 246 217 204 208 212 221 223 218 215 212 210 206 199 188 178 177 181 185 184 184 186 185 184 186 186 184 186 189 186 182 180 181 182 180 179 179 176 175 177 173 178 181
182 180 173 189 202 191 201 255 232 207 212 206 215 220 213 209 206 201 193 180 179 182 182 184 185 185 185 183 181 183 183 182 186 189 186 183 182 182 182 180 180 182 181 179 180 181 181 183 187